Simultaneous Nadir Overpasses (SNOs) Predictions

Prediction of SNOs between AQUA and NOAA-19 Satellite Orbit:

Table of predicted SNOs for the next 14.0 days since TLE Epoch: 8/1/2014
Index Date (AQUA) Time (AQUA) Lat,Lon (AQUA) SZA (AQUA ) Date (NOAA-19) Time (NOAA-19) Lat,Lon (NOAA-19) SZA (NOAA-19 ) Distance(km) Time Diff (sec)
1 08/02/2014 13:22:40 77.59, -37.41 60.52 08/02/2014 13:21:54 77.60, -37.49 60.55 1.94 46
2 08/02/2014 14:11:51 -76.91, 132.89 120.31 08/02/2014 14:12:44 -76.91, 132.88 120.32 0.26 53
3 08/04/2014 18:08:08 80.35,-125.63 65.05 08/04/2014 18:06:55 80.07,-126.79 64.99 38.12 73
4 08/04/2014 18:56:16 -77.22, 60.64 119.36 08/04/2014 18:56:40 -77.23, 60.53 119.34 3.03 24
5 08/06/2014 23:40:36 -77.31, -10.80 118.65 08/06/2014 23:40:30 -77.31, -10.75 118.65 1.30 6
6 08/09/2014 04:24:59 -77.56, -82.86 117.73 08/09/2014 04:24:24 -77.56, -82.85 117.72 0.35 35
7 08/09/2014 05:14:16 77.09, 86.62 61.71 08/09/2014 05:15:10 77.10, 86.57 61.70 1.55 54
8 08/11/2014 09:09:21 -77.77,-154.83 116.84 08/11/2014 09:08:17 -77.77,-154.82 116.82 0.25 64
9 08/11/2014 09:58:37 77.26, 14.89 62.55 08/11/2014 09:59:02 77.26, 14.89 62.55 0.20 25




NCC Satellite Simultaneous Nadir Overpasses (SNOs) Prediction Service
